Flag for Brazil Weather past 2 weeks in Florianópolis, Santa Catarina, Brazil

Now
75 °F

Partly cloudy.


Feels Like: 75 °F
Forecast: 72 / 80 °F
Wind: 8 mph from Northeast

Location: Florianopolis Aeroporto

Current Time: Apr 18, 2015 at 2:37:45 AM

Latest Report: Apr 18, 2015 at 1:00 AM


Visibility: N/A

Pressure: 29.98 "Hg

Humidity: 83%

Dew point: 70 °F

Location of FlorianópolisLocation

Historic Weather in Florianópolis — Graph

°F

Florianópolis temperature yesterday

Maximum temperature yesterday: 77 °F (at 1:00 PM)
Minimum temperature yesterday: 70 °F (at 1:00 AM)
Average temperature yesterday: 73 °F

Past Weeks' High & Low Weather Summary

 TemperatureHumidityPressure
High84 °F (Apr 3, 2:00 PM)94% (Apr 5, 1:00 PM)30.15 "Hg (Apr 5, 1:00 PM)
Low63 °F (Apr 9, 6:00 AM)48% (Apr 10, 2:00 PM)29.71 "Hg (Apr 5, 2:00 PM)
Average74 °F77%30.00 "Hg
* Reported Apr 3 1:00 AM — Apr 18 1:00 AM, Florianópolis, Weather by CustomWeather, © 2015

Note: Actual official high and low records may vary slightly from our data, if they occured in-between our weather recording intervals... More about our weather records

Advertising

Florianópolis weather history for previous 24 hours

 ConditionsComfort  
Time TempWeatherWind HumidityBarometerVisibility
1:00 AM
Sat, Apr 18
75 °FPartly cloudy.8 mph83%29.98 "HgN/A
12:00 AM75 °FPassing clouds.3 mph83%29.98 "Hg6 mi
11:00 PM
Fri, Apr 17
75 °FPassing clouds.3 mph83%30.01 "Hg6 mi
10:00 PM75 °FLight rain. Passing clouds.2 mph83%30.01 "Hg6 mi
9:00 PM75 °FPassing clouds.7 mph83%30.01 "HgN/A
8:00 PM75 °FPartly cloudy.8 mph83%30.01 "HgN/A
7:00 PM73 °FPassing clouds.8 mph89%30.01 "HgN/A
6:00 PM73 °FPassing clouds.6 mph83%30.01 "HgN/A
5:00 PM75 °FPartly cloudy.12 mph83%30.01 "HgN/A
4:00 PM75 °FBroken clouds.7 mph83%30.04 "HgN/A
3:00 PM75 °FBroken clouds.6 mph83%30.04 "Hg5 mi
2:00 PM77 °FBroken clouds.9 mph79%30.04 "HgN/A
1:00 PM77 °FBroken clouds.No wind79%30.07 "HgN/A
12:00 PM75 °FBroken clouds.2 mph83%30.07 "HgN/A
11:00 AM75 °FBroken clouds.2 mph78%30.09 "HgN/A
10:00 AM73 °FScattered showers. Broken clouds.3 mph89%30.09 "HgN/A
9:00 AM73 °FScattered showers. Broken clouds.2 mph89%30.09 "HgN/A
8:00 AM72 °FScattered showers. Broken clouds.2 mph88%30.09 "HgN/A
7:00 AM72 °FBroken clouds.1 mph88%30.09 "HgN/A
6:00 AM70 °FBroken clouds.2 mph94%30.07 "Hg6 mi
5:00 AM72 °FPartly cloudy.5 mph88%30.04 "Hg5 mi
4:00 AM70 °FPartly cloudy.3 mph94%30.07 "Hg4 mi
3:00 AM70 °FPartly cloudy.2 mph94%30.07 "Hg4 mi
2:00 AM70 °FLight rain. Passing clouds.3 mph88%30.07 "Hg2 mi
Weather by CustomWeather, © 2015

See weather overviewHow to use our weather pages